EW3623 Weather Reports


Display with metric or nautical units.
time (UTC)temp
F
wind
direction
speed
MPH
gust
MPH
rain 1hr
in
rain 24hr
in
rain mn
in
humidity
%
barometer
mb
20260504003315 66 243 8.0 19.0 0.00 0.02 0.02 49 1005.3
20260504003009 66 226 9.0 13.0 0.00 0.02 0.02 48 1005.3
20260504002823 66 261 9.0 13.0 0.00 0.02 0.02 48 1005.3
20260504002324 67 221 7.0 16.0 0.00 0.02 0.02 48 1005.3
20260504001817 67 360 8.0 15.0 0.00 0.02 0.02 47 1005.3
20260504001530 66 223 7.0 15.0 0.00 0.02 0.02 47 1005.4
20260504001321 67 223 6.0 14.0 0.00 0.02 0.02 47 1005.3
20260504000831 67 232 7.0 17.0 0.00 0.02 0.02 47 1005.3
20260504000318 67 234 7.0 17.0 0.00 0.02 0.02 46 1005.2
20260504000034 67 223 7.0 14.0 0.00 0.02 0.02 46 1005.2
20260503235820 67 241 8.0 17.0 0.00 0.02 0.02 46 1005.2
20260503235328 68 234 8.0 17.0 0.00 0.02 0.02 46 1005.2
20260503234830 68 360 7.0 16.0 0.00 0.02 0.02 45 1005.2
20260503234551 67 201 7.0 19.0 0.00 0.02 0.02 45 1005.2
20260503234333 68 250 7.0 19.0 0.00 0.02 0.02 45 1005.3
20260503233843 68 360 10.0 19.0 0.00 0.02 0.02 45 1005.3
20260503233347 68 194 5.0 13.0 0.00 0.02 0.02 45 1005.2
20260503233055 68 218 6.0 13.0 0.00 0.02 0.02 44 1005.1
20260503232851 68 196 7.0 17.0 0.00 0.02 0.02 44 1005.1
20260503232338 68 230 4.0 20.0 0.00 0.02 0.02 44 1005.1
20260503231843 68 164 11.0 20.0 0.00 0.02 0.02 44 1005.2
20260503231528 68 203 11.0 22.0 0.00 0.02 0.02 43 1005.2
20260503231335 68 188 9.0 17.0 0.00 0.02 0.02 44 1005.2
20260503230850 68 178 8.0 17.0 0.00 0.02 0.02 44 1005.2
20260503230317 68 233 7.0 18.0 0.00 0.02 0.02 44 1005.3
20260503230026 68 225 8.0 18.0 0.00 0.02 0.02 44 1005.5
20260503225847 68 220 10.0 18.0 0.00 0.02 0.02 43 1005.3
20260503225333 68 360 10.0 16.0 0.00 0.02 0.02 44 1005.4
20260503224817 68 194 7.0 16.0 0.00 0.02 0.02 44 1005.5
20260503224518 67 208 8.0 20.0 0.00 0.02 0.02 43 1005.6
20260503224324 68 203 9.0 20.0 0.00 0.02 0.02 43 1005.6
20260503223836 68 199 12.0 20.0 0.00 0.02 0.02 43 1005.6
20260503223343 68 205 8.0 18.0 0.00 0.02 0.02 43 1005.6
20260503223012 67 198 9.0 21.0 0.00 0.02 0.02 43 1005.7
20260503222834 67 277 9.0 21.0 0.00 0.02 0.02 43 1005.6
20260503222322 67 229 8.0 16.0 0.00 0.02 0.02 44 1005.7
20260503221813 67 208 9.0 18.0 0.00 0.02 0.02 43 1005.8
20260503221531 67 360 9.0 18.0 0.00 0.02 0.02 43 1005.7
20260503221322 67 237 11.0 18.0 0.00 0.02 0.02 44 1005.8
20260503220831 67 221 9.0 22.0 0.00 0.02 0.02 45 1005.9
20260503220318 67 203 11.0 18.0 0.00 0.02 0.02 44 1005.6
20260503220047 66 217 7.0 17.0 0.00 0.02 0.02 45 1005.4
20260503215820 66 176 10.0 21.0 0.00 0.02 0.02 44 1005.3
20260503215326 66 184 11.0 21.0 0.00 0.02 0.02 45 1005.0
20260503214826 65 360 13.0 19.0 0.00 0.02 0.02 45 1004.7
20260503214557 65 188 8.0 19.0 0.00 0.02 0.02 45 1004.8
20260503214321 65 360 10.0 22.0 0.00 0.02 0.02 45 1005.5
20260503213855 65 166 10.0 22.0 0.00 0.02 0.02 45 1006.1
20260503213327 66 228 9.0 20.0 0.00 0.02 0.02 44 1006.3
20260503213052 65 194 9.0 20.0 0.00 0.02 0.02 44 1005.5
20260503212818 66 202 12.0 20.0 0.00 0.02 0.02 44 1005.1
20260503212327 65 224 10.0 22.0 0.00 0.02 0.02 44 1005.0
20260503211816 65 190 9.0 23.0 0.00 0.02 0.02 43 1005.8
20260503211516 65 227 12.0 23.0 0.00 0.02 0.02 43 1006.8
20260503211348 65 208 13.0 23.0 0.00 0.02 0.02 43 1006.6
20260503210830 65 184 7.0 27.0 0.00 0.02 0.02 44 1006.7
20260503210320 65 246 15.0 27.0 0.00 0.02 0.02 43 1006.8
20260503210003 64 360 13.0 23.0 0.00 0.02 0.02 43 1007.0
20260503205833 64 167 9.0 26.0 0.00 0.02 0.02 44 1006.9
20260503205321 64 204 12.0 26.0 0.00 0.02 0.02 43 1007.0
20260503204822 64 175 13.0 28.0 0.00 0.02 0.02 43 1007.1
20260503204524 63 200 14.0 28.0 0.00 0.02 0.02 43 1007.2
20260503204326 63 196 16.0 28.0 0.00 0.02 0.02 43 1007.3
20260503203833 63 206 13.0 25.0 0.00 0.02 0.02 43 1007.4
20260503203330 63 193 14.0 26.0 0.00 0.02 0.02 43 1007.5
20260503203027 63 181 14.0 26.0 0.00 0.02 0.02 43 1007.7
20260503202817 63 191 15.0 28.0 0.00 0.02 0.02 43 1007.6
20260503202354 63 206 13.0 28.0 0.00 0.02 0.02 43 1007.6
20260503201826 63 226 9.0 24.0 0.00 0.02 0.02 43 1007.7
20260503201543 63 276 11.0 24.0 0.00 0.02 0.02 43 1007.8
20260503201319 63 259 12.0 25.0 0.00 0.02 0.02 44 1007.7
20260503200851 64 193 14.0 32.0 0.00 0.02 0.02 44 1007.8
20260503200319 64 194 13.0 32.0 0.00 0.02 0.02 44 1007.8
20260503200028 64 198 16.0 32.0 0.00 0.02 0.02 44 1007.9
20260503195833 64 200 12.0 24.0 0.00 0.02 0.02 44 1007.8
20260503195317 64 216 11.0 27.0 0.00 0.02 0.02 46 1007.8
20260503194817 63 203 17.0 27.0 0.00 0.02 0.02 45 1008.0
20260503194540 63 202 13.0 30.0 0.00 0.02 0.02 46 1008.0
20260503194323 63 202 13.0 30.0 0.00 0.02 0.02 47 1008.0
20260503193833 63 213 11.0 27.0 0.00 0.02 0.02 47 1008.1
20260503193336 63 171 15.0 28.0 0.00 0.02 0.02 49 1008.0
20260503193028 62 139 5.0 21.0 0.00 0.02 0.02 50 1008.2
20260503192832 62 236 12.0 23.0 0.00 0.02 0.02 50 1008.1
20260503192324 62 195 13.0 28.0 0.00 0.02 0.02 53 1008.2
20260503191857 61 171 17.0 28.0 0.00 0.02 0.02 54 1008.2
20260503191524 60 198 12.0 22.0 0.00 0.02 0.02 56 1008.5
20260503191337 60 194 9.0 22.0 0.00 0.02 0.02 57 1008.3
20260503190840 60 198 12.0 21.0 0.00 0.02 0.02 57 1008.5
20260503190324 60 234 9.0 24.0 0.00 0.02 0.02 57 1008.5
20260503190017 59 211 8.0 26.0 0.00 0.02 0.02 58 1008.7
20260503185835 60 203 12.0 26.0 0.00 0.02 0.02 58 1008.7
20260503185335 59 196 11.0 26.0 0.00 0.02 0.02 60 1008.7
20260503184815 58 175 10.0 21.0 0.00 0.02 0.02 63 1009.0
20260503184558 57 157 9.0 21.0 0.00 0.02 0.02 63 1009.1
20260503184317 57 211 13.0 21.0 0.00 0.02 0.02 63 1009.2
20260503183833 57 158 9.0 22.0 0.00 0.02 0.02 64 1009.2
20260503183338 56 181 10.0 22.0 0.00 0.02 0.02 65 1009.4
20260503183055 55 142 9.0 18.0 0.00 0.02 0.02 66 1009.6
20260503182821 55 163 8.0 16.0 0.00 0.02 0.02 67 1009.5
20260503182323 55 151 9.0 16.0 0.00 0.02 0.02 67 1009.5
20260503181835 55 207 8.0 21.0 0.00 0.02 0.02 69 1009.8
20260503181608 54 160 10.0 21.0 0.00 0.02 0.02 69 1009.9
20260503181327 54 169 6.0 16.0 0.00 0.02 0.02 70 1009.9
20260503180835 54 200 9.0 17.0 0.00 0.02 0.02 70 1010.0
20260503180327 54 177 7.0 17.0 0.00 0.02 0.02 72 1010.1
20260503180021 53 360 9.0 19.0 0.00 0.02 0.02 73 1010.2
20260503175829 53 180 10.0 19.0 0.00 0.02 0.02 72 1010.2
20260503175331 52 184 8.0 17.0 0.00 0.02 0.02 75 1010.4
20260503174841 52 175 8.0 17.0 0.00 0.02 0.02 77 1010.8
20260503174517 51 202 10.0 19.0 0.00 0.02 0.02 78 1011.1
20260503174345 51 197 9.0 19.0 0.00 0.02 0.02 78 1011.1
20260503173854 51 213 9.0 17.0 0.00 0.02 0.02 78 1011.3
20260503173320 51 183 8.0 18.0 0.00 0.02 0.02 79 1011.4
20260503173013 50 174 8.0 17.0 0.00 0.02 0.02 78 1011.6
20260503172825 51 177 11.0 17.0 0.00 0.02 0.02 78 1011.7
20260503172323 51 198 8.0 17.0 0.00 0.02 0.02 78 1012.0
20260503171820 51 186 8.0 14.0 0.00 0.02 0.02 78 1012.2
20260503171525 51 186 6.0 19.0 0.00 0.02 0.02 78 1012.3
20260503171324 51 198 7.0 19.0 0.00 0.02 0.02 78 1012.1
20260503170834 51 185 8.0 19.0 0.01 0.02 0.02 78 1012.3
20260503170320 51 196 9.0 19.0 0.01 0.02 0.02 78 1012.4
20260503150833 54 267 9.0 19.0 0.00 0.00 0.00 60 1013.1
20260503150345 54 233 8.0 19.0 0.00 0.00 0.00 60 1013.1
20260503131327 50 360 8.0 19.0 0.00 0.00 0.00 60 1014.0
20260503130817 50 239 9.0 15.0 0.00 0.00 0.00 61 1014.0
20260503130357 50 360 8.0 15.0 0.00 0.00 0.00 61 1014.1
20260503110342 47 248 6.0 12.0 0.00 0.00 0.00 63 1013.8
20260503090331 46 228 5.0 10.0 0.00 0.00 0.00 59 1014.2
20260503081526 47 235 7.0 17.0 0.00 0.00 0.00 55 1014.9
20260503081328 47 214 7.0 14.0 0.00 0.00 0.00 55 1014.4
20260503080819 47 238 5.0 13.0 0.00 0.00 0.00 56 1014.5
20260503080330 47 213 6.0 10.0 0.00 0.00 0.00 56 1014.4
20260503072827 47 244 5.0 10.0 0.00 0.00 0.00 56 1014.5
20260503072331 47 228 5.0 9.0 0.00 0.00 0.00 56 1014.5
20260503071842 47 232 5.0 8.0 0.00 0.00 0.00 56 1014.5
20260503071526 46 207 4.0 7.0 0.00 0.00 0.00 56 1015.0
20260503071331 47 224 4.0 9.0 0.00 0.00 0.00 55 1014.5
20260503070820 47 224 4.0 9.0 0.00 0.00 0.00 55 1014.6
20260503070324 47 204 5.0 9.0 0.00 0.00 0.00 55 1014.7
20260503060321 47 207 5.0 9.0 0.00 0.00 0.00 54 1015.2
20260503054840 47 218 3.0 7.0 0.00 0.00 0.00 53 1015.3
20260503054518 47 223 3.0 8.0 0.00 0.00 0.00 53 1015.8
20260503054353 48 207 4.0 8.0 0.00 0.00 0.00 53 1015.3
20260503053838 48 207 4.0 9.0 0.00 0.00 0.00 53 1015.4
20260503053321 48 237 4.0 8.0 0.00 0.00 0.00 53 1015.4
20260503053047 47 221 4.0 8.0 0.00 0.00 0.00 53 1015.9
20260503052821 48 224 4.0 8.0 0.00 0.00 0.00 53 1015.4
20260503052324 48 203 3.0 7.0 0.00 0.00 0.00 52 1015.4
20260503051835 48 360 4.0 8.0 0.00 0.00 0.00 52 1015.5
20260503051559 48 231 3.0 8.0 0.00 0.00 0.00 52 1016.1
20260503051323 48 233 4.0 8.0 0.00 0.00 0.00 52 1015.5
20260503050857 48 207 4.0 8.0 0.00 0.00 0.00 52 1015.6
20260503050349 48 244 3.0 9.0 0.00 0.00 0.00 52 1015.6
20260503050029 48 217 4.0 9.0 0.00 0.00 0.00 52 1016.2
20260503045830 48 223 4.0 8.0 0.00 0.00 0.00 52 1015.6
20260503045331 48 236 4.0 8.0 0.00 0.00 0.00 52 1015.6
20260503044818 48 252 4.0 9.0 0.00 0.00 0.00 52 1015.6
20260503044543 48 230 3.0 9.0 0.00 0.00 0.00 52 1016.2
20260503044351 48 230 4.0 9.0 0.00 0.00 0.00 52 1015.6
20260503043820 49 259 5.0 10.0 0.00 0.00 0.00 52 1015.7
20260503043328 48 223 5.0 8.0 0.00 0.00 0.00 52 1015.6
20260503043030 48 223 4.0 8.0 0.00 0.00 0.00 52 1016.2
20260503042839 48 222 4.0 8.0 0.00 0.00 0.00 52 1015.7
20260503042329 48 213 5.0 7.0 0.00 0.00 0.00 53 1015.7
20260503041828 48 228 4.0 9.0 0.00 0.00 0.00 53 1015.8
20260503041516 48 223 4.0 9.0 0.00 0.00 0.00 53 1016.3
20260503041333 48 213 4.0 7.0 0.00 0.00 0.00 53 1015.8
20260503040846 48 221 4.0 7.0 0.00 0.00 0.00 54 1015.8
20260503040317 48 236 3.0 7.0 0.00 0.00 0.00 54 1015.8
20260503040027 48 230 3.0 7.0 0.00 0.00 0.00 54 1016.4
20260503035854 48 219 3.0 7.0 0.00 0.00 0.00 53 1015.8
20260503035319 48 360 3.0 7.0 0.00 0.00 0.00 54 1015.9
20260503034825 48 360 4.0 6.0 0.00 0.00 0.00 53 1015.9
20260503034551 48 207 3.0 6.0 0.00 0.00 0.00 53 1016.4
20260503034316 48 213 3.0 6.0 0.00 0.00 0.00 53 1015.8
20260503033850 48 222 3.0 6.0 0.00 0.00 0.00 53 1015.8
20260503033324 48 209 3.0 5.0 0.00 0.00 0.00 53 1015.8
20260503033109 48 207 3.0 5.0 0.00 0.00 0.00 53 1016.4
20260503032826 48 215 3.0 5.0 0.00 0.00 0.00 52 1015.8
20260503032330 49 212 3.0 5.0 0.00 0.00 0.00 52 1015.9
20260503031816 49 360 3.0 5.0 0.00 0.00 0.00 52 1015.9
20260503031600 48 209 2.0 5.0 0.00 0.00 0.00 52 1016.6
20260503031326 49 211 3.0 5.0 0.00 0.00 0.00 52 1016.0
20260503030830 49 217 3.0 5.0 0.00 0.00 0.00 52 1016.0
20260503030334 49 360 3.0 5.0 0.00 0.00 0.00 51 1016.0
20260503030009 48 220 2.0 5.0 0.00 0.00 0.00 51 1016.7
20260503025842 49 223 3.0 5.0 0.00 0.00 0.00 51 1016.0
20260503025328 49 360 3.0 6.0 0.00 0.00 0.00 51 1016.0
20260503024813 49 206 3.0 6.0 0.00 0.00 0.00 51 1016.0
20260503024603 49 212 3.0 5.0 0.00 0.00 0.00 51 1016.6
20260503024321 49 214 3.0 5.0 0.00 0.00 0.00 51 1016.0
20260503023835 49 360 3.0 5.0 0.00 0.00 0.00 51 1016.0
20260503023319 49 360 3.0 5.0 0.00 0.00 0.00 51 1016.0
20260503023011 49 360 3.0 4.0 0.00 0.00 0.00 51 1016.6
20260503022821 49 218 3.0 4.0 0.00 0.00 0.00 51 1016.0
20260503022334 50 360 2.0 4.0 0.00 0.00 0.00 50 1016.0
20260503021842 50 221 2.0 6.0 0.00 0.00 0.00 50 1015.9
20260503021528 49 216 2.0 6.0 0.00 0.00 0.00 49 1016.5
20260503021347 50 360 3.0 6.0 0.00 0.00 0.00 49 1015.9
20260503020816 50 360 3.0 5.0 0.00 0.00 0.00 49 1016.0
20260503020329 50 360 3.0 5.0 0.00 0.00 0.00 48 1016.0
20260503020020 50 360 2.0 5.0 0.00 0.00 0.00 48 1016.6
20260503015813 50 208 3.0 5.0 0.00 0.00 0.00 48 1015.9
20260503015328 51 199 3.0 4.0 0.00 0.00 0.00 47 1015.9
20260503014842 51 360 2.0 4.0 0.00 0.00 0.00 46 1015.9
20260503014521 51 205 2.0 4.0 0.00 0.00 0.00 46 1016.4
20260503014327 51 360 2.0 4.0 0.00 0.00 0.00 46 1015.9
20260503013825 51 210 3.0 4.0 0.00 0.00 0.00 45 1015.9
20260503013333 52 210 2.0 5.0 0.00 0.00 0.00 45 1015.8
20260503013029 51 214 2.0 5.0 0.00 0.00 0.00 45 1016.4
20260503012820 52 360 3.0 5.0 0.00 0.00 0.00 45 1015.8
20260503012355 52 215 2.0 4.0 0.00 0.00 0.00 44 1015.7
20260503011841 52 227 2.0 6.0 0.00 0.00 0.00 44 1015.8
20260503011506 52 229 2.0 6.0 0.00 0.00 0.00 43 1016.3
20260503011326 52 240 3.0 6.0 0.00 0.00 0.00 43 1015.7
20260503010837 53 211 3.0 6.0 0.00 0.00 0.00 43 1015.8
20260503010341 53 238 3.0 4.0 0.00 0.00 0.00 43 1015.8
20260503010012 52 229 2.0 4.0 0.00 0.00 0.00 42 1016.4
20260503005842 53 229 2.0 4.0 0.00 0.00 0.00 42 1015.7
20260503005344 53 238 3.0 6.0 0.00 0.00 0.00 42 1015.6
20260503004848 54 360 3.0 6.0 0.00 0.00 0.00 42 1015.6
20260503004550 53 258 2.0 6.0 0.00 0.00 0.00 41 1016.2
20260503004334 54 255 3.0 7.0 0.00 0.00 0.00 41 1015.6
20260503003818 54 246 2.0 7.0 0.00 0.00 0.00 41 1015.7